Starlink 4296

operational
NORAD ID: 52995 Int'l Des: 2022-076 Owner: SPXS Country: US Constellation: starlink
LEOCIRCULAR

Starlink 4296について

説明を読み込み中...

リアルタイム位置

3D地球を読み込み中...

次回通過

高度履歴

Altitude vs Time

uPlot chart will show altitude changes over time

軌道要素

1 52995U 22076K 25352.68145686 .00000219 00000-0 31866-4 0 9998
2 52995 53.2178 97.7805 0001334 83.0326 277.0818 15.08841765190612
Epoch: Dec 18, 2025 • Age: 14 hours

現在のステータス

高度 551.7 km
速度 7.59 km/s
衛星直下点 -35.27°S, 127.8°E
打ち上げ日 Jul 7, 2022
運用期間 3.4 years
タイプ internet

技術仕様

分類 Payload
質量 297.00 kg
乾燥質量 275.00 kg
総質量 297.00 kg
長さ 0.20 m
直径 2.80 m
スパン 9.00 m
形状 Box + pan
製造者 SPXS
バスタイプ Starlink
フェーズステータス In Orbit
所有者/国 SPXS/US

大規模コンステレーション

Loading constellations...